OneWeb SL0297

operational
NORAD ID: 49086 Int'l Des: 2021-075 Owner: ONEWEBN Country: UK Constellation: oneweb
LEOCIRCULARPOLARONEWEB_TYPE

Über OneWeb SL0297

Beschreibung wird geladen...

Live-Position

3D-Globus wird geladen...

Nächste Überflüge

Höhenverlauf

Altitude vs Time

uPlot chart will show altitude changes over time

Zweizeiliger Elementsatz

1 49086U 21075M 25350.14282728 -.00000323 00000-0 -93420-3 0 9992
2 49086 87.8929 27.0513 0001726 100.1906 259.9418 13.12462028211172
Epoch: 16. Dez. 2025 • Age: 19 hours

Aktueller Status

Höhe 1224.3 km
Geschwindigkeit 7.25 km/s
Subsatellitenpunkt 68.45°N, 141.41°E
Startdatum 21. Aug. 2021
Alter 4.3 years
Typ internet

Technische Details

Klassifizierung Payload
Masse 148.00 kg
Trockenmasse 140.00 kg
Gesamtmasse 148.00 kg
Länge 1.30 m
Durchmesser 1.00 m
Spannweite 5.00 m
Form Trapezoid+2 pan
Hersteller ONEWUS
Bus-Typ ARROW
Phasenstatus In Orbit
Besitzer/Staat ONEWEBN/UK

Große Konstellationen

Loading constellations...